Погода в Парной

Россия / Красноярский край     55°17′18″N   89°13′57″E
темп.,
°C
ветер,
м/с
пор.,
м/с
влажн.,
%
обл.,
%
осадки,
мм/ч
давл.,
гПа
погр.,
м
15 мая, сб
сб1501:00+6зюз2452100 0.0 1022102
04:00+7з31048100 0.0 1021702
07:00+9зюз5124964 0.0 1020651
10:00+13зюз81538100 0.0 1018839
13:00+13зюз81752100 0.1 1018801
16:00+16з81647100 0.0 1016920
19:00+15зюз81550100 0.0 1015943
22:00+14зюз81753100 0.2 10151043
16 мая, вс
вс1601:00+12зюз41477100 2.9 1016781
04:00+12з41482100 2.4 1014660
07:00+12зсз31177100 3.3 1014698
10:00+14сз3671100 0.1 1014863
13:00+18зсз3659100 0.4 10111247
16:00+19юз61452100 0.4 10071940
19:00+11сз41195100 11.7 1009861
22:00+8св2396100 2.6 1012302
17 мая, пн
пн1701:00+7ссв2292100 3.5 1013305
04:00+6ссв229498 0.0 1014340
07:00+6с239299 0.0 1015428
10:00+8с227580 0.0 1016707
13:00+12св115893 0.0 10151102
16:00+13ссз2353100 0.0 10141546
19:00+10ссз2465100 0.0 1015455
22:00+7сз117984 0.0 101610
18 мая, вт
вт1801:00+8ююз2279100 0.0 101469
04:00+8ю2581100 0.0 1011151
07:00+10юз41280100 0.5 1008673
10:00+11зюз31289100 4.8 10041024
13:00+12з61390100 9.5 1003991
16:00+12сз41193100 5.0 1003698
19:00+13сз3892100 6.8 1002940
22:00+9ссз2698100 0.9 1005493
19 мая, ср
ср1901:00+8с2398100 1.0 1006407
04:00+6с2497100 0.6 1006416
07:00+6с2597100 3.4 1007378
10:00+6ссв2492100 2.3 1007610
13:00+7ссв2487100 4.4 1007821
16:00+6с3583100 0.4 1006895
19:00+7с3668100 0.5 10061274
22:00+3ссв31069100 0.0 1008500